Regional Weather Roundup
Issued by NWS

Home | Current Version | Previous Version | Graphics & Text | Print | Product List | Glossary On
Versions: 1 2 3 4 5 6 7 8 9 10 11 12 13 14 15 16 17 18 19 20 21 22 23 24 25 26 27 28 29 30 31 32 33 34 35 36 37 38 39 40 41 42 43 44 45 46 47 48 49 50
035
ASUS43 KBIS 071910
RWRND

NORTH DAKOTA REGIONAL WEATHER ROUNDUP
NATIONAL WEATHER SERVICE BISMARCK ND
100 PM CST SUN FEB 07 2016

NOTE: "FAIR" INDICATES FEW OR NO CLOUDS BELOW 12,000 FEET WITH NO
SIGNIFICANT WEATHER AND/OR OBSTRUCTIONS TO VISIBILITY.


NDZ001>003-009>011-017-072000-
NORTHWEST NORTH DAKOTA

CITY           SKY/WX    TMP DP  RH WIND       PRES   REMARKS
WILLISTON      SUNNY     35  18  49 NW35G44   30.15R
MINOT          FLURRIES  29  15  56 NW31G45   29.96R WCI  13
$$

NDZ018>021-031>035-040>046-072000-
SOUTHWEST NORTH DAKOTA

CITY           SKY/WX    TMP DP  RH WIND       PRES   REMARKS
BISMARCK       CLOUDY    33  19  56 NW39G54   29.96R WCI  17
DICKINSON      PTSUNNY   32  14  47 NW43G52   30.06R WCI  15
GARRISON         N/A     29  19  66 NW35G54   29.96R WCI  12
HETTINGER ARPT SUNNY     36  12  37 NW45G58   30.07S
$$

NDZ004>008-012>016-024-026-027-054-072000-
NORTHEAST NORTH DAKOTA

CITY           SKY/WX    TMP DP  RH WIND       PRES   REMARKS
GRAND FORKS    CLOUDY    23  15  71 N23G37    29.75R HAZE    WCI   7
GRND FRKS AFB  LGT SNOW  23  15  70 N23G37    29.75R WCI   7
DEVILS LAKE    FLURRIES  21  14  74 NW37G47   29.80R WCI   1
$$

NDZ022-023-025-028>030-036>039-047>053-072000-
SOUTHEAST NORTH DAKOTA

CITY           SKY/WX    TMP DP  RH WIND       PRES   REMARKS
FARGO          CLOUDY    30  24  78 NW35G45   29.72R WCI  14
JAMESTOWN      LGT SNOW  27  21  78 NW33G48   29.79R WCI  10
$$





USA.gov is the U.S. government's official web portal to all federal, state and local government web resources and services.